Temperature
14 13 13 13 13 13 13 13 13 13 13 13 13 13 13 13 13 13 13 14 15 15 14 14 14 14 14 14 14 13 13 13 12 11 12 12 12 12 12 12 12 12 12
14 14 14 14 13 13 13 13 13 13 13 13 12 12 12 12 12 13 13 13 14 15 15 14 14 14 14 13 13 12 12 13 12 12 12 12 12 12 12 12 13 12 12
14 14 14 14 13 13 13 12 12 12 12 12 12 12 12 12 12 12 12 13 13 14 15 14 14 14 14 14 13 13 13 13 13 13 13 12 12 12 12 12 12 12 12
14 14 13 12 13 13 12 12 12 11 11 11 11 11 11 12 12 12 12 12 12 13 13 14 14 14 14 13 13 12 12 12 13 13 13 12 12 12 11 12 12 12 12
14 13 13 13 12 12 12 12 12 11 11 10 10 11 11 11 12 12 12 12 12 12 13 13 14 14 14 14 13 12 12 12 12 12 12 12 12 12 12 12 12 12 12
13 13 13 12 12 12 11 11 10 10 10 10 10 10 10 11 11 12 12 12 12 12 12 12 12 12 13 14 13 13 13 13 12 12 12 12 12 12 12 12 12 12 11
12 12 12 12 12 11 11 10 9 9 9 9 9 10 10 12 12 13 12 12 13 12 12 12 12 11 11 12 12 13 13 12 12 12 12 12 12 11 11 11 11 11 12
12 12 11 11 11 10 10 9 8 8 8 8 8 9 10 11 12 11 11 12 12 12 12 12 11 11 11 11 11 11 12 12 12 12 12 12 12 12 11 11 11 11 11
11 11 11 10 10 10 9 8 7 6 6 7 7 7 8 9 9 9 10 11 11 11 11 11 11 11 11 11 10 10 11 11 12 11 11 11 11 11 11 11 11 12 11
11 10 10 9 9 8 8 7 7 6 5 5 6 6 6 7 7 8 9 9 9 9 9 9 9 9 10 10 10 10 10 10 11 10 10 10 10 10 10 11 11 11 11
10 9 9 8 8 7 7 6 6 5 4 4 4 4 5 5 6 6 6 7 7 8 8 8 8 8 9 9 9 9 8 8 8 9 9 9 9 9 9 10 11 11 11
9 8 8 8 7 6 6 6 5 5 4 4 3 3 4 4 4 4 5 5 5 6 6 6 7 7 8 8 8 7 7 7 7 7 7 8 8 8 9 9 9 9 10
8 8 7 7 6 6 5 5 5 4 3 3 2 2 2 2 3 3 3 4 4 4 4 5 6 7 7 6 6 6 5 5 5 5 5 6 6 7 7 7 7 8 7
7 6 6 5 5 5 4 4 3 2 2 1 1 1 1 1 1 2 2 2 2 2 3 4 4 4 5 4 4 4 3 3 3 4 4 4 5 6 6 6 6 6 7
6 5 5 5 4 4 3 3 2 2 1 0 0 0 0 0 0 0 0 0 1 1 1 1 2 2 3 2 2 2 2 1 2 2 2 3 5 5 5 5 6 6 7
5 4 4 4 3 3 2 2 1 0 -0 -1 -1 -1 -1 -1 -1 -1 -1 -1 -1 -1 -0 -0 -0 0 0 1 1 1 1 0 1 1 1 2 3 3 5 6 6 6 6
4 3 3 3 2 2 1 1 0 -0 -1 -1 -2 -1 -1 -2 -2 -2 -2 -2 -2 -2 -2 -2 -2 -1 -1 -1 -1 -1 -0 -0 -0 -0 0 1 1 2 2 4 5 5 6
3 2 2 2 1 1 1 0 -1 -2 -2 -2 -2 -2 -2 -2 -3 -3 -3 -3 -3 -3 -3 -3 -3 -3 -3 -2 -2 -2 -2 -1 -1 -1 -0 -0 0 1 1 3 3 3 4
2 1 1 1 1 1 0 -1 -2 -2 -3 -3 -3 -3 -3 -4 -4 -4 -4 -4 -4 -4 -4 -4 -4 -4 -4 -3 -3 -3 -3 -2 -2 -1 -1 -1 -0 0 0 1 2 2 3
1 1 1 1 0 -0 -1 -2 -2 -3 -3 -4 -4 -4 -4 -5 -5 -5 -5 -5 -5 -5 -5 -5 -5 -5 -5 -4 -4 -4 -3 -3 -3 -2 -2 -2 -1 -1 -0 0 1 2 2
1 1 0 -0 -1 -1 -2 -2 -3 -4 -4 -5 -5 -5 -5 -6 -6 -6 -6 -6 -6 -6 -6 -6 -5 -5 -5 -5 -5 -5 -5 -4 -4 -3 -3 -2 -2 -2 -1 -1 0 1 2
0 -0 -1 -1 -2 -2 -3 -3 -4 -5 -6 -6 -5 -6 -6 -6 -6 -6 -6 -6 -6 -6 -6 -6 -6 -6 -6 -6 -6 -6 -6 -5 -5 -4 -3 -3 -3 -3 -2 -2 -1 -0 1
-0 -1 -1 -2 -3 -4 -4 -4 -6 -6 -6 -6 -6 -6 -6 -6 -6 -7 -6 -6 -6 -7 -7 -7 -7 -7 -7 -7 -7 -7 -6 -6 -5 -5 -4 -4 -4 -3 -3 -3 -2 -1 0
-1 -2 -3 -4 -5 -5 -6 -7 -7 -7 -7 -6 -6 -6 -6 -6 -7 -6 -6 -7 -7 -7 -7 -8 -8 -8 -8 -7 -7 -7 -7 -6 -6 -5 -5 -5 -4 -4 -4 -4 -3 -2 -1
-2 -3 -4 -5 -6 -6 -7 -8 -8 -7 -7 -6 -6 -6 -7 -7 -7 -7 -7 -7 -8 -8 -8 -8 -8 -8 -8 -8 -8 -7 -7 -7 -6 -6 -6 -6 -5 -5 -5 -4 -3 -3 -2
-4 -4 -5 -6 -7 -7 -8 -8 -8 -7 -7 -7 -7 -7 -7 -7 -7 -7 -8 -8 -8 -9 -9 -9 -9 -9 -9 -9 -8 -8 -8 -8 -7 -7 -7 -6 -6 -6 -6 -5 -4 -4 -3
Wind_Speed
5 6 6 7 8 8 8 9 10 11 12 13 13 15 17 17 17 17 16 19 22 26 29 29 29 30 31 33 33 32 32 32 32 33 33 33 32 32 32 33 32 32 32
5 6 7 7 7 8 9 9 10 11 11 12 14 15 16 17 17 17 17 18 19 24 28 30 30 30 31 32 34 33 32 32 33 34 34 35 35 35 35 35 35 35 35
5 6 6 7 7 9 10 10 11 11 11 12 14 15 15 16 17 18 17 16 16 19 26 30 31 31 32 33 34 34 33 33 34 34 34 35 36 36 37 37 37 38 38
5 5 5 6 8 8 8 9 9 10 11 12 12 13 14 15 18 17 16 15 14 13 16 23 27 29 31 32 34 35 34 33 33 34 34 34 35 37 38 39 39 39 39
6 5 5 7 7 7 7 8 9 10 11 12 12 13 14 14 16 16 17 16 15 14 13 13 16 22 27 30 33 35 35 34 33 33 34 35 35 36 39 40 40 41 41
11 8 7 9 9 8 9 10 12 12 12 12 13 14 14 15 15 14 14 13 13 14 14 14 13 13 19 26 29 31 33 33 34 34 35 36 37 38 40 41 41 42 42
12 10 8 9 10 9 10 11 11 13 12 13 14 14 15 15 15 12 10 14 16 16 16 16 13 11 10 15 21 25 29 31 34 34 36 38 39 40 42 43 43 44 44
12 10 10 8 9 9 10 11 12 11 11 13 13 15 12 15 14 14 16 15 17 16 16 15 15 16 16 13 12 16 20 26 30 33 33 34 36 38 40 42 43 43 43
11 10 9 9 9 9 9 11 11 11 11 12 12 11 11 12 16 15 17 15 15 14 15 16 19 20 19 17 16 15 16 22 27 29 32 32 32 35 38 40 41 42 43
11 11 10 9 9 8 9 10 11 10 11 11 11 11 13 16 17 16 13 16 17 17 18 16 19 21 21 18 17 16 16 18 26 28 29 29 32 34 36 37 39 40 41
8 10 9 8 9 8 9 10 10 10 9 11 11 12 13 13 16 17 18 16 16 16 18 19 18 19 20 19 17 18 19 21 26 28 30 31 31 32 32 35 35 36 38
6 9 10 9 9 9 9 10 10 10 10 11 11 11 12 13 14 16 18 18 18 17 18 17 18 16 16 13 13 13 16 21 23 25 27 28 30 31 29 33 32 31 30
7 9 9 9 8 9 10 10 10 10 10 11 11 12 12 13 14 15 17 18 19 18 19 17 17 15 14 12 14 15 19 20 24 24 25 30 30 29 28 29 30 34 34
6 7 8 8 9 10 10 10 9 10 10 11 13 14 12 14 14 15 16 17 18 19 19 21 17 17 16 15 20 19 20 24 28 25 27 30 29 27 26 26 26 30 33
5 7 9 10 10 10 11 11 10 11 11 12 13 14 13 14 14 15 15 16 17 19 19 22 19 21 18 18 21 21 23 25 30 31 28 29 28 24 26 28 26 27 28
7 8 9 10 10 11 11 11 10 11 12 13 13 16 16 15 15 16 16 16 16 17 19 20 20 22 22 21 23 25 24 26 27 31 32 31 23 25 30 31 27 25 26
7 8 10 10 11 12 12 12 13 13 14 15 16 17 18 18 16 16 16 16 16 16 17 20 19 23 27 27 24 24 23 23 21 28 34 31 28 29 31 31 27 27 25
8 9 10 11 12 12 13 14 14 15 16 17 18 18 19 17 19 18 16 17 17 18 18 21 22 22 26 27 26 26 24 21 22 25 34 34 32 31 32 33 27 22 20
9 10 10 12 13 13 14 14 15 17 17 18 18 19 19 20 20 18 19 19 17 17 18 20 22 21 21 22 24 24 25 22 22 23 29 30 30 29 29 29 28 23 21
10 11 11 12 13 14 14 14 16 18 18 18 18 18 19 19 20 20 19 20 19 20 20 19 20 20 21 23 21 21 21 20 20 20 22 23 26 28 27 27 26 25 20
10 11 12 13 13 13 13 15 17 18 19 19 19 18 18 20 23 21 19 20 21 20 20 20 20 20 20 21 21 20 21 21 20 18 17 16 16 17 18 22 22 23 22
11 12 13 14 14 13 16 19 19 18 18 18 18 19 19 20 21 25 28 29 28 25 23 20 20 21 24 23 22 21 20 21 19 15 16 17 15 16 17 16 23 26 26
13 14 15 15 16 16 18 20 21 18 17 17 18 19 18 17 21 21 25 29 28 27 26 23 23 24 25 24 24 24 22 22 20 17 17 18 15 15 16 16 27 30 30
13 14 15 16 16 16 18 20 21 17 17 17 18 19 20 21 21 25 25 23 21 22 24 23 22 22 23 24 23 23 23 23 21 16 12 15 15 15 14 13 25 29 28
14 15 15 16 16 16 18 19 20 16 16 18 19 19 21 21 28 32 26 24 24 22 25 29 31 30 33 33 26 18 18 17 17 15 10 12 14 14 12 13 14 19 21
15 15 15 15 15 15 16 18 20 15 17 17 18 19 23 26 30 34 28 25 23 23 23 24 23 24 24 24 26 19 17 17 17 16 10 8 12 12 9 8 7 10 15
Wind_Direction
296 305 304 310 310 307 304 302 299 295 292 288 282 277 274 271 269 267 265 250 236 242 249 251 251 252 252 251 251 250 249 249 246 241 238 237 237 237 238 240 241 241 241
302 310 305 302 306 307 307 305 305 302 296 293 289 285 282 280 276 274 271 265 243 237 244 249 249 248 249 250 250 250 247 247 247 246 242 239 237 236 236 237 237 238 239
297 298 301 312 320 324 321 317 313 308 302 299 296 295 292 288 283 280 274 270 262 239 236 244 249 248 246 246 247 247 245 243 242 242 242 240 238 237 236 235 236 236 237
331 321 324 333 337 334 332 327 326 319 314 311 308 304 298 293 287 282 278 274 270 265 246 238 243 251 253 251 250 250 248 245 243 242 243 243 240 237 237 236 236 236 237
30 21 16 7 358 354 350 343 331 324 315 311 307 302 300 295 290 286 281 279 276 272 268 259 240 240 248 254 256 255 253 249 246 244 243 243 243 240 237 237 236 236 235
47 42 32 18 6 1 355 346 335 328 321 320 316 307 301 296 292 288 289 289 286 281 276 273 269 255 240 246 254 258 259 258 253 249 248 247 245 244 241 239 238 237 236
39 31 20 12 3 356 351 343 337 331 329 330 321 317 306 299 299 302 321 307 294 289 282 278 282 282 272 251 247 254 259 261 261 257 251 249 249 249 248 246 243 240 238
34 27 16 6 358 349 348 346 344 337 332 334 330 327 320 316 316 330 310 300 297 288 286 287 281 286 291 289 283 267 260 263 265 268 264 255 251 251 250 249 248 246 243
32 23 14 4 0 356 352 348 347 340 334 333 337 329 327 321 317 312 307 302 311 309 304 307 303 298 291 287 282 273 257 256 264 269 273 273 266 258 254 252 249 247 245
27 18 12 7 3 0 357 351 350 343 339 336 336 332 322 318 317 319 315 316 308 311 307 303 301 300 295 289 289 283 264 260 268 273 275 273 272 269 264 257 252 251 249
23 17 10 9 8 5 359 351 347 344 344 339 336 330 323 321 320 315 310 311 306 303 303 298 293 293 294 295 294 296 305 303 294 290 286 281 276 274 275 271 263 258 254
17 17 9 11 8 2 353 346 343 340 340 336 330 324 321 318 312 308 303 303 303 303 301 301 297 290 291 302 314 335 342 331 321 313 304 297 292 288 289 292 290 288 285
11 8 3 2 358 353 348 342 336 332 332 329 323 317 314 310 308 304 303 303 303 305 305 301 302 305 312 320 320 343 329 322 316 311 317 312 307 303 299 300 301 299 297
358 353 352 352 351 349 345 338 327 326 326 322 318 311 308 306 304 302 302 304 303 303 304 302 310 313 316 317 322 321 315 314 307 308 312 309 307 306 301 297 293 288 289
347 345 349 349 346 341 335 329 324 324 321 317 312 306 303 301 302 302 304 303 301 302 303 305 310 310 308 311 307 315 309 304 305 304 301 301 294 299 304 300 296 287 283
347 342 341 338 333 328 326 324 318 318 314 310 305 302 300 300 305 303 300 301 300 297 294 296 303 303 311 306 309 307 305 304 299 301 298 288 288 300 294 295 296 293 288
341 333 331 326 321 321 323 321 319 315 311 307 305 303 302 302 301 303 302 296 296 296 297 295 297 305 306 306 306 306 305 302 299 296 292 292 298 288 285 286 290 290 288
334 326 318 314 316 321 324 321 317 314 310 308 307 306 304 304 301 300 297 299 298 298 297 298 301 302 303 307 307 307 306 303 297 292 291 290 287 284 284 285 287 291 293
322 315 315 318 321 322 319 315 316 313 310 308 307 307 306 305 302 303 304 302 301 302 301 298 299 302 302 305 307 305 302 300 296 296 295 292 289 289 288 286 286 288 284
315 317 321 320 318 315 313 317 317 312 310 308 309 307 306 305 305 307 304 303 306 304 300 299 300 303 305 305 305 304 304 304 302 299 295 291 294 292 291 295 296 292 280
314 318 317 315 314 312 313 319 315 312 311 310 309 310 308 307 303 302 303 304 304 301 301 301 301 305 307 308 309 308 307 306 302 300 294 299 305 304 301 297 288 278 268
315 317 316 315 313 311 313 314 314 311 311 311 312 311 310 307 308 310 306 303 302 304 307 303 304 304 305 305 306 305 305 302 303 302 306 305 300 294 291 288 287 286 281
318 317 317 315 312 310 313 315 317 313 310 312 312 311 311 311 315 308 306 306 308 300 301 304 301 300 300 299 302 301 300 297 294 298 301 291 292 283 286 281 285 284 280
319 317 315 313 309 308 314 319 321 314 313 312 312 311 311 312 310 310 312 310 305 310 308 304 298 295 293 297 299 298 295 292 290 289 285 289 299 292 293 292 292 286 280
315 314 313 311 310 312 319 321 319 317 316 316 315 313 312 309 309 319 321 313 312 313 311 305 303 305 305 301 299 298 296 296 296 292 295 290 294 294 294 292 286 298 302
311 312 309 312 313 314 319 320 319 320 318 317 313 312 310 312 316 319 319 314 313 315 313 310 310 309 303 300 299 298 301 298 297 296 300 292 297 296 294 287 309 308 302
Height
1501 1500 1499 1496 1495 1494 1491 1489 1487 1485 1482 1480 1477 1474 1471 1468 1466 1462 1458 1455 1452 1451 1449 1447 1445 1444 1443 1442 1441 1441 1442 1443 1444 1445 1445 1446 1446 1446 1447 1448 1449 1449 1450
1498 1497 1496 1494 1493 1491 1488 1486 1483 1481 1478 1475 1472 1469 1466 1463 1460 1456 1452 1448 1444 1441 1440 1439 1437 1435 1434 1433 1432 1432 1432 1433 1434 1435 1436 1436 1437 1438 1439 1439 1440 1441 1442
1496 1495 1493 1492 1490 1487 1484 1482 1479 1476 1474 1470 1467 1464 1461 1457 1453 1449 1445 1441 1437 1433 1430 1429 1428 1426 1425 1424 1423 1422 1421 1421 1420 1421 1423 1424 1425 1426 1427 1428 1429 1431 1432
1494 1492 1491 1489 1486 1484 1481 1479 1475 1472 1469 1465 1461 1457 1454 1450 1446 1442 1438 1435 1431 1427 1423 1420 1419 1418 1416 1414 1412 1411 1411 1410 1409 1410 1411 1412 1412 1413 1414 1415 1417 1418 1420
1492 1490 1489 1487 1484 1482 1480 1476 1473 1470 1465 1461 1456 1452 1448 1444 1440 1436 1433 1429 1425 1421 1417 1414 1411 1409 1407 1405 1403 1401 1400 1400 1399 1399 1399 1399 1400 1400 1400 1401 1402 1404 1406
1491 1489 1488 1486 1484 1481 1478 1475 1472 1468 1465 1460 1453 1448 1443 1439 1435 1431 1428 1425 1421 1417 1413 1409 1406 1402 1398 1396 1395 1392 1390 1388 1388 1387 1387 1387 1387 1387 1387 1388 1389 1389 1391
1491 1490 1488 1486 1483 1480 1476 1473 1469 1464 1461 1456 1450 1444 1439 1435 1431 1427 1422 1420 1417 1412 1409 1405 1401 1396 1393 1389 1385 1383 1381 1378 1377 1375 1374 1373 1373 1373 1373 1375 1376 1376 1377
1491 1489 1487 1485 1481 1477 1473 1469 1465 1461 1458 1454 1450 1442 1434 1430 1427 1424 1419 1414 1410 1406 1402 1397 1394 1390 1386 1382 1377 1374 1371 1369 1366 1364 1362 1361 1360 1359 1360 1361 1362 1363 1363
1490 1488 1485 1481 1477 1474 1471 1467 1462 1458 1455 1452 1449 1445 1436 1427 1423 1420 1415 1410 1406 1401 1396 1392 1387 1384 1380 1376 1370 1365 1361 1358 1355 1353 1351 1349 1346 1346 1345 1345 1347 1347 1348
1489 1485 1482 1478 1475 1472 1468 1465 1461 1457 1454 1450 1446 1443 1439 1432 1424 1413 1410 1408 1402 1397 1392 1387 1382 1377 1373 1368 1362 1357 1353 1349 1344 1341 1339 1336 1334 1332 1332 1332 1332 1334 1334
1486 1483 1479 1475 1473 1470 1467 1464 1460 1456 1452 1449 1446 1441 1437 1431 1425 1417 1404 1401 1398 1393 1387 1380 1374 1368 1364 1359 1354 1349 1344 1339 1335 1331 1329 1326 1324 1322 1321 1319 1320 1320 1321
1485 1481 1478 1475 1471 1468 1465 1461 1458 1454 1451 1447 1443 1439 1435 1429 1423 1416 1405 1395 1389 1383 1378 1372 1365 1360 1355 1350 1345 1340 1333 1329 1326 1322 1319 1317 1314 1311 1309 1306 1305 1303 1303
1485 1481 1476 1472 1468 1465 1461 1458 1455 1451 1447 1443 1439 1435 1431 1426 1421 1413 1404 1392 1383 1375 1369 1364 1360 1354 1347 1342 1338 1333 1326 1322 1318 1315 1311 1307 1304 1301 1299 1296 1292 1288 1289
1482 1477 1472 1469 1465 1462 1459 1455 1451 1447 1443 1439 1434 1430 1426 1421 1415 1409 1402 1392 1379 1369 1362 1356 1353 1348 1342 1336 1331 1327 1321 1315 1311 1307 1302 1299 1295 1291 1289 1288 1287 1284 1280
1477 1473 1470 1466 1463 1459 1456 1452 1447 1443 1438 1434 1429 1425 1420 1414 1409 1403 1396 1390 1382 1369 1358 1350 1346 1341 1336 1329 1325 1319 1313 1307 1302 1296 1293 1290 1286 1283 1278 1276 1274 1274 1271
1474 1471 1467 1464 1459 1455 1451 1447 1442 1436 1432 1428 1424 1419 1413 1408 1402 1396 1390 1384 1377 1369 1358 1348 1341 1334 1328 1321 1317 1313 1307 1301 1293 1288 1283 1280 1278 1272 1269 1265 1262 1261 1258
1471 1467 1464 1460 1455 1451 1446 1441 1435 1431 1426 1422 1417 1412 1407 1402 1395 1389 1383 1377 1371 1364 1354 1343 1337 1329 1323 1317 1311 1306 1301 1295 1287 1280 1275 1271 1266 1263 1258 1255 1252 1251 1249
1468 1464 1459 1455 1451 1446 1441 1435 1430 1425 1420 1415 1410 1405 1399 1393 1387 1382 1376 1370 1364 1357 1349 1339 1331 1325 1317 1311 1305 1300 1294 1287 1280 1273 1268 1262 1257 1253 1248 1245 1243 1241 1240
1464 1460 1455 1451 1446 1441 1435 1429 1424 1418 1413 1408 1402 1397 1391 1386 1380 1375 1369 1363 1356 1350 1343 1335 1325 1318 1311 1304 1297 1291 1285 1280 1273 1266 1260 1254 1249 1245 1241 1238 1235 1232 1231
1460 1455 1451 1446 1441 1435 1429 1423 1417 1411 1405 1399 1394 1389 1384 1379 1373 1367 1361 1356 1349 1343 1336 1328 1319 1311 1303 1295 1290 1283 1275 1269 1264 1258 1252 1246 1241 1236 1232 1229 1225 1222 1220
1454 1450 1444 1439 1434 1428 1422 1416 1409 1403 1397 1391 1386 1382 1377 1372 1366 1360 1355 1349 1343 1336 1328 1321 1312 1304 1296 1290 1283 1276 1268 1259 1253 1249 1242 1236 1232 1227 1224 1221 1217 1214 1213
1449 1444 1438 1433 1427 1421 1416 1409 1402 1395 1389 1384 1379 1375 1370 1365 1359 1354 1348 1342 1337 1330 1322 1314 1306 1298 1290 1285 1277 1269 1261 1253 1243 1239 1235 1227 1224 1219 1215 1212 1208 1205 1204
1443 1437 1432 1426 1420 1414 1408 1400 1393 1387 1382 1378 1374 1369 1363 1358 1353 1347 1340 1334 1328 1322 1317 1311 1301 1293 1284 1277 1270 1260 1253 1246 1237 1231 1228 1217 1215 1211 1207 1204 1199 1195 1192
1437 1431 1424 1419 1413 1407 1400 1393 1386 1381 1377 1373 1369 1364 1358 1352 1347 1341 1333 1324 1317 1313 1308 1302 1293 1285 1277 1269 1263 1255 1246 1236 1229 1225 1221 1211 1208 1204 1200 1194 1189 1185 1182
1430 1424 1418 1412 1405 1399 1393 1386 1381 1377 1372 1368 1364 1359 1353 1347 1342 1335 1326 1317 1309 1302 1297 1291 1283 1276 1268 1261 1254 1246 1237 1230 1221 1216 1215 1209 1203 1197 1192 1186 1182 1178 1175
1424 1418 1411 1405 1399 1392 1387 1382 1379 1374 1369 1363 1358 1353 1348 1342 1335 1328 1320 1312 1301 1293 1286 1278 1272 1265 1258 1251 1246 1240 1232 1224 1216 1208 1207 1203 1197 1193 1185 1180 1175 1171 1166